Weather History for CYUL - December, 2013

Change the Weather History Date:

Friday, December 27, 2013

  Actual Average Record
Temperature  
Mean Temperature 18 °F -  
Max Temperature 24 °F 25 °F 42 °F (2014)
Min Temperature 12 °F 12 °F 3 °F (1999)
Degree Days  
Heating Degree Days 47    
Moisture  
Dew Point 15 °F    
Average Humidity 86    
Maximum Humidity 93    
Minimum Humidity 70    
Precipitation  
Precipitation 0.01 in - - ()
Sea Level Pressure  
Sea Level Pressure 30.18 in    
Wind  
Wind Speed 7 mph ()    
Max Wind Speed 12 mph    
Max Gust Speed -    
Visibility 9.1 miles    
Events Snow    
Averages and records for this station are not official NWS values.
T = Trace of Precipitation, MM = Missing Value Source: Averaged Metar Reports

Daily Weather History Graph

Daily Weather History Graph

Search for Another Location

Airport or City:

Trip Planner

Search our weather history database for the weather conditions in past years. The results will help you decide how hot, cold, wet, or windy it might be!

Date:

Astronomy

Dec. 27, 2013 Rise Set
Actual Time 7:34 AM EST 4:18 PM EST
Civil Twilight 7:00 AM EST 4:52 PM EST
Nautical Twilight 6:22 AM EST 5:29 PM EST
Astronomical Twilight 5:46 AM EST 6:06 PM EST
Moon 1:53 AM EST (12/27) 12:36 PM EST (12/27)
Length of Visible Light 9h 52m
Length of Day
8h 44m
Waning Crescent, 28% of the Moon is Illuminated
Dec 27
Waning Crescent
Jan 1
New
Jan 7
First Quarter
Jan 15
Full
Jan 24
Last Quarter

Hourly Weather History & Observations

Time (EST) Temp. Windchill Dew Point Humidity Pressure Visibility Wind Dir Wind Speed Gust Speed Precip Events Conditions
12:00 AM 14.0 °F 5.1 °F 12.2 °F 93% 30.18 in 4.0 mi SW 5.8 mph - N/A Snow Light Snow
12:28 AM 14.0 °F 2.9 °F 12.2 °F 93% 30.19 in 4.0 mi SSW 8.1 mph - N/A Snow Light Snow
1:00 AM 15 °F - 12 °F 83% 30.19 in 5 mi SSW 8.1 mph - - Snow Light Snow
1:00 AM 14.0 °F 2.9 °F 12.2 °F 93% 30.19 in 5.0 mi SW 8.1 mph - N/A Snow Light Snow
1:20 AM 15.8 °F 6.1 °F 12.2 °F 86% 30.19 in 8.0 mi WSW 6.9 mph - N/A   Overcast
2:00 AM 15.8 °F 6.1 °F 12.2 °F 86% 30.19 in 8.0 mi West 6.9 mph - N/A   Overcast
3:00 AM 15.8 °F 8.6 °F 12.2 °F 86% 30.20 in 8.0 mi West 4.6 mph - N/A   Overcast
4:00 AM 14.0 °F 8.2 °F 10.4 °F 86% 30.20 in 10.0 mi WSW 3.5 mph - N/A   Mostly Cloudy
5:00 AM 14.0 °F - 12.2 °F 93% 30.19 in 8.0 mi Variable 2.3 mph - N/A   Overcast
6:00 AM 15.8 °F - 12.2 °F 86% 30.19 in 6.0 mi SW 2.3 mph - N/A Snow Light Snow
7:00 AM 17 °F - 14 °F 82% 30.20 in 3 mi West 6.9 mph - - Snow Light Snow
7:00 AM 17.6 °F 9.3 °F 14.0 °F 86% 30.20 in 3.0 mi West 5.8 mph - N/A Snow Light Snow
7:17 AM 17.6 °F 10.7 °F 14.0 °F 86% 30.20 in 2.5 mi West 4.6 mph - N/A Snow Light Snow
7:42 AM 15.8 °F 8.6 °F 14.0 °F 93% 30.21 in 3.0 mi WSW 4.6 mph - N/A Snow Light Snow
8:00 AM 15.8 °F 8.6 °F 14.0 °F 93% 30.22 in 12.0 mi SW 4.6 mph - N/A Snow Light Snow
8:25 AM 17.6 °F - 14.0 °F 86% 30.21 in 12.0 mi WSW 2.3 mph - N/A   Mostly Cloudy
9:00 AM 15.8 °F 8.6 °F 14.0 °F 93% 30.21 in 12.0 mi SW 4.6 mph - N/A   Overcast
9:35 AM 17.6 °F 5.0 °F 14.0 °F 86% 30.21 in 12.0 mi SW 11.5 mph - N/A Snow Light Snow
10:00 AM 17.6 °F 7.3 °F 14.0 °F 86% 30.20 in 10.0 mi SW 8.1 mph - N/A   Overcast
10:33 AM 19.4 °F 9.5 °F 15.8 °F 86% 30.20 in 10.0 mi SW 8.1 mph - N/A   Overcast
10:47 AM 19.4 °F 10.4 °F 15.8 °F 86% 30.19 in 10.0 mi SSW 6.9 mph - N/A Snow Light Snow
11:00 AM 19.4 °F 9.5 °F 15.8 °F 86% 30.19 in 4.0 mi SSW 8.1 mph - N/A Snow Light Snow
11:17 AM 21.2 °F 10.9 °F 17.6 °F 86% 30.19 in 2.2 mi SW 9.2 mph - N/A Snow Light Snow
11:29 AM 21.2 °F 12.6 °F 17.6 °F 86% 30.18 in 4.0 mi SW 6.9 mph - N/A Snow Light Snow
12:00 PM 23.0 °F 14.7 °F 19.4 °F 86% 30.17 in 5.0 mi West 6.9 mph - N/A Snow Light Snow
12:29 PM 23.0 °F 12.4 °F 19.4 °F 86% 30.16 in 6.0 mi WSW 10.4 mph - N/A Snow Light Snow
1:00 PM 24 °F - 20 °F 78% 30.16 in 7 mi West 11.5 mph - - Snow Light Snow
1:00 PM 23.0 °F 11.7 °F 19.4 °F 86% 30.16 in 7.0 mi West 11.5 mph - N/A Snow Light Snow
1:14 PM 23.0 °F 12.4 °F 19.4 °F 86% 30.15 in 8.0 mi WSW 10.4 mph - N/A Snow Light Snow
1:41 PM 23.0 °F 11.7 °F 19.4 °F 86% 30.15 in 10.0 mi WSW 11.5 mph - N/A   Mostly Cloudy
2:00 PM 23.0 °F 13.1 °F 19.4 °F 86% 30.15 in 15.0 mi WSW 9.2 mph - N/A   Partly Cloudy
3:00 PM 24.8 °F 14.6 °F 17.6 °F 74% 30.15 in 15.0 mi WSW 10.4 mph - N/A   Partly Cloudy
4:00 PM 21.2 °F 9.5 °F 15.8 °F 80% 30.17 in 15.0 mi WSW 11.5 mph - N/A   Partly Cloudy
5:00 PM 19.4 °F 7.9 °F 15.8 °F 86% 30.17 in 15.0 mi SW 10.4 mph - N/A   Partly Cloudy
6:00 PM 17.6 °F 5.7 °F 14.0 °F 86% 30.20 in 15.0 mi SW 10.4 mph - N/A   Partly Cloudy
7:00 PM 18 °F - 12 °F 70% 30.21 in 15 mi WSW 9.2 mph - -   Partly Cloudy
7:00 PM 17.6 °F 6.4 °F 12.2 °F 79% 30.21 in 15.0 mi WSW 9.2 mph - N/A   Partly Cloudy
8:00 PM 15.8 °F 4.2 °F 10.4 °F 79% 30.19 in 15.0 mi SW 9.2 mph - N/A   Partly Cloudy
9:00 PM 15.8 °F 5.1 °F 12.2 °F 86% 30.17 in 15.0 mi SSW 8.1 mph - N/A   Scattered Clouds
10:00 PM 19.4 °F 8.6 °F 14.0 °F 80% 30.15 in 15.0 mi SSW 9.2 mph - N/A   Mostly Cloudy
11:00 PM 19.4 °F 8.6 °F 17.6 °F 93% 30.12 in 15.0 mi South 9.2 mph - N/A   Partly Cloudy